Date String (YYYY-MM-DD hh:mm:ss) UTC,Instrument flags,Ambient pressure (hPa),Sample flow (lpm),Bypass flow (lpm),Sample temperature (°C),Ambient temperature (°C),ASC tube jacket temperature (°C),LED temperature (°C),Box temperature (°C),Sample RH (%),Span deviation,Mass concentration (μg/m³),Mass concentration (μg/m³),Mass concentration (μg/m³)
DateTimeUTC,F1_M11,P_M11,Q1_M11,Q2_M11,T1_M11,T2_M11,T3_M11,T4_M11,T5_M11,U1_M11,ZSPAN_M11,X0_M11,X2_M11,X1_M11
2022-06-18 11:00:00,,0823.7,5.00,0.00,29.7,28.7,00.0,38.5,31.6,20.9,0000.0,0013.45,0008.34,0006.89
2022-06-18 11:01:00,,0823.7,5.01,0.00,29.8,28.7,00.0,38.6,31.7,20.9,0000.0,0013.52,0008.35,0006.90
2022-06-18 11:02:00,,0823.8,4.99,0.00,29.8,28.8,00.0,38.6,31.7,20.8,0000.0,0013.68,0008.41,0006.91
2022-06-18 11:03:00,,0823.8,5.00,0.00,29.8,28.8,00.0,38.6,31.7,20.8,0000.0,0013.84,0008.45,0006.92
2022-06-18 11:04:00,,0823.8,5.00,0.00,29.8,28.9,00.0,38.6,31.8,20.8,0001.8,0014.05,0008.44,0006.91
2022-06-18 11:05:00,,0823.8,4.99,0.00,29.8,28.9,00.0,38.6,31.8,20.8,0002.0,0014.17,0008.41,0006.89
2022-06-18 11:06:00,,0823.7,4.99,0.00,29.9,28.9,00.0,38.6,31.8,20.7,0000.1,0014.19,0008.38,0006.85
2022-06-18 11:07:00,,0823.7,5.00,0.00,29.9,29.0,00.0,38.7,31.8,20.7,0001.7,0014.12,0008.32,0006.81
2022-06-18 11:08:00,,0823.7,5.00,0.00,29.9,29.0,00.0,38.7,31.8,20.7,0002.3,0013.92,0008.19,0006.77
2022-06-18 11:09:00,,0823.7,5.00,0.00,29.9,29.0,00.0,38.7,31.9,20.7,0002.1,0013.83,0008.12,0006.72
2022-06-18 11:10:00,,0823.7,5.00,0.00,30.0,29.1,00.0,38.7,31.9,20.7,0001.5,0013.75,0008.04,0006.68
2022-06-18 11:11:00,,0823.7,5.00,0.00,30.0,29.0,00.0,38.7,31.9,20.7,0000.8,0014.63,0008.03,0006.65
2022-06-18 11:12:00,,0823.7,5.01,0.00,29.9,28.2,00.0,38.6,31.7,20.7,0000.8,0014.59,0007.99,0006.62
2022-06-18 11:13:00,,0823.7,5.00,0.00,29.9,27.7,00.0,38.6,31.5,20.8,0000.7,0014.43,0007.99,0006.61
2022-06-18 11:14:00,,0823.8,4.99,0.00,29.8,27.6,00.0,38.6,31.5,20.9,0000.6,0014.24,0007.95,0006.60
2022-06-18 11:15:00,,0823.7,5.00,0.00,29.7,27.6,00.0,38.6,31.4,20.9,0000.1,0014.07,0007.92,0006.57
2022-06-18 11:16:00,,0823.8,5.00,0.00,29.7,27.7,00.0,38.6,31.4,21.0,0000.0,0014.37,0007.94,0006.55
2022-06-18 11:17:00,,0823.7,4.99,0.00,29.7,27.9,00.0,38.6,31.5,20.9,0000.1,0014.20,0007.89,0006.54
2022-06-18 11:18:00,,0823.8,5.00,0.00,29.7,28.0,00.0,38.6,31.5,20.9,-000.1,0014.62,0007.92,0006.53
2022-06-18 11:19:00,,0823.8,5.01,0.00,29.7,28.1,00.0,38.5,31.5,20.9,0000.1,0014.78,0007.96,0006.52
2022-06-18 11:20:00,,0823.8,4.99,0.00,29.7,28.2,00.0,38.5,31.5,20.9,0000.6,0014.91,0007.98,0006.51
2022-06-18 11:21:00,,0823.8,4.99,0.00,29.7,28.3,00.0,38.6,31.6,20.9,0000.8,0014.70,0007.98,0006.48
2022-06-18 11:22:00,,0823.8,5.00,0.00,29.7,28.4,00.0,38.5,31.6,20.9,0001.6,0013.88,0007.95,0006.44
2022-06-18 11:23:00,,0823.8,5.00,0.00,29.7,28.5,00.0,38.5,31.6,20.9,0002.0,0013.94,0007.90,0006.41
2022-06-18 11:24:00,,0823.8,5.00,0.00,29.7,28.6,00.0,38.6,31.6,20.9,0002.3,0013.89,0007.83,0006.37
2022-06-18 11:25:00,,0823.8,5.00,0.00,29.7,28.7,00.0,38.6,31.7,20.8,0001.9,0014.06,0007.89,0006.35
2022-06-18 11:26:00,,0823.8,5.00,0.00,29.8,28.7,00.0,38.6,31.7,20.8,0001.7,0013.78,0007.86,0006.35
2022-06-18 11:27:00,,0823.8,4.99,0.00,29.8,28.8,00.0,38.6,31.7,20.7,0002.0,0013.43,0007.81,0006.33
2022-06-18 11:28:00,,0823.9,5.00,0.00,29.8,28.8,00.0,38.6,31.7,20.7,0001.7,0013.61,0007.86,0006.33
2022-06-18 11:29:00,,0823.9,4.99,0.00,29.8,28.8,00.0,38.6,31.8,20.8,0002.5,0013.32,0007.85,0006.30
2022-06-18 11:30:00,,0823.9,5.00,0.00,29.9,28.9,00.0,38.6,31.7,21.1,0002.0,0013.70,0007.82,0006.29
2022-06-18 11:31:00,,0824.0,5.00,0.00,29.9,28.9,00.0,38.6,31.8,21.5,0000.2,0013.51,0007.79,0006.29
2022-06-18 11:32:00,,0824.0,5.00,0.00,29.9,28.9,00.0,38.7,31.8,21.5,0000.0,0013.92,0007.74,0006.29
2022-06-18 11:33:00,,0824.0,5.01,0.00,29.9,29.0,00.0,38.7,31.8,21.4,0000.0,0014.29,0007.73,0006.28
2022-06-18 11:34:00,,0824.0,5.00,0.00,29.9,29.0,00.0,38.7,31.9,21.2,0000.0,0014.16,0007.75,0006.29
2022-06-18 11:35:00,,0823.9,4.99,0.00,30.0,29.0,00.0,38.7,31.9,21.1,0000.0,0014.12,0007.77,0006.31
2022-06-18 11:36:00,,0824.0,5.00,0.00,30.0,28.6,00.0,38.7,31.8,21.1,0000.0,0014.11,0007.73,0006.29
2022-06-18 11:37:00,,0824.0,5.00,0.00,29.9,27.8,00.0,38.6,31.6,21.1,0000.0,0014.29,0007.76,0006.27
2022-06-18 11:38:00,,0823.9,5.01,0.00,29.8,27.5,00.0,38.6,31.5,21.2,0000.0,0014.27,0007.78,0006.27
2022-06-18 11:39:00,,0824.0,5.00,0.00,29.7,27.5,00.0,38.6,31.4,21.2,0000.0,0014.22,0007.79,0006.28
2022-06-18 11:40:00,,0824.0,5.00,0.00,29.7,27.6,00.0,38.6,31.4,21.2,0000.0,0014.22,0007.79,0006.29
2022-06-18 11:41:00,,0824.0,4.99,0.00,29.7,27.7,00.0,38.5,31.4,21.2,0000.0,0013.61,0007.76,0006.28
2022-06-18 11:42:00,,0824.0,4.99,0.00,29.7,27.9,00.0,38.5,31.4,21.2,0000.0,0013.65,0007.75,0006.25
2022-06-18 11:43:00,,0823.9,5.01,0.00,29.6,28.0,00.0,38.5,31.5,21.2,0000.0,0013.33,0007.78,0006.24
2022-06-18 11:44:00,,0823.9,4.99,0.00,29.6,28.1,00.0,38.5,31.5,21.3,0000.0,0012.71,0007.76,0006.23
2022-06-18 11:45:00,,0823.9,5.00,0.00,29.7,28.2,00.0,38.5,31.5,21.4,0000.0,0012.67,0007.71,0006.21
2022-06-18 11:46:00,,0823.9,5.01,0.00,29.7,28.3,00.0,38.5,31.5,21.5,0000.3,0013.05,0007.65,0006.17
2022-06-18 11:47:00,,0823.8,5.00,0.00,29.7,28.4,00.0,38.5,31.5,21.4,0000.9,0012.85,0007.58,0006.16
2022-06-18 11:48:00,,0823.8,5.00,0.00,29.7,28.5,00.0,38.5,31.6,21.4,0001.4,0012.80,0007.47,0006.14
2022-06-18 11:49:00,,0823.8,4.99,0.00,29.7,28.6,00.0,38.5,31.6,21.5,0001.0,0012.83,0007.42,0006.14
2022-06-18 11:50:00,,0823.8,5.00,0.00,29.7,28.7,00.0,38.5,31.6,21.4,0001.0,0012.76,0007.34,0006.11
2022-06-18 11:51:00,,0823.9,5.00,0.00,29.7,28.7,00.0,38.6,31.7,21.5,0001.0,0012.72,0007.31,0006.10
2022-06-18 11:52:00,,0823.9,4.99,0.00,29.8,28.8,00.0,38.6,31.7,21.5,0001.8,0012.57,0007.31,0006.11
2022-06-18 11:53:00,,0824.0,5.00,0.00,29.8,28.8,00.0,38.6,31.7,21.4,0002.3,0012.56,0007.30,0006.11
2022-06-18 11:54:00,,0824.0,5.02,0.00,29.8,28.8,00.0,38.6,31.7,21.3,0003.0,0012.54,0007.26,0006.10
2022-06-18 11:55:00,,0824.0,5.01,0.00,29.8,28.9,00.0,38.6,31.8,21.2,0003.7,0012.66,0007.30,0006.12
2022-06-18 11:56:00,,0824.0,4.99,0.00,29.8,28.9,00.0,38.6,31.8,21.2,0003.7,0012.61,0007.31,0006.14
2022-06-18 11:57:00,,0824.0,4.99,0.00,29.9,28.9,00.0,38.6,31.8,21.2,0003.3,0012.18,0007.32,0006.16
2022-06-18 11:58:00,,0824.0,5.01,0.00,29.9,29.0,00.0,38.7,31.8,21.2,0003.5,0012.33,0007.36,0006.19
2022-06-18 11:59:00,,0824.0,5.01,0.00,29.9,29.0,00.0,38.7,31.9,21.3,0000.1,0012.26,0007.42,0006.19
